Współrzędne 180

Uploaded 20 listopada 2013

Recorded listopada 2013

-
-
248 m
112 m
0
2,4
4,8
9,58 km

Obejrzane 311 razy, pobrane 0 razy

w pobliżu  Prądnik Czerwony, Województwo małopolskie (Rzeczpospolita Polska)

Droga do domu z uczelni.
Thu Oct 24 14:41:15 2013 S=2.48 Km/hr
Thu Oct 24 14:41:18 2013 S=2.03 Km/hr
Thu Oct 24 14:42:10 2013 S=4.35 Km/hr
Thu Oct 24 14:47:05 2013 S=19.61 Km/hr
Thu Oct 24 14:47:11 2013 S=39.57 Km/hr
Thu Oct 24 14:47:15 2013 S=43.96 Km/hr
Thu Oct 24 14:47:19 2013 S=44.33 Km/hr
Thu Oct 24 14:47:24 2013 S=41.06 Km/hr
Thu Oct 24 14:47:29 2013 S=36.06 Km/hr
Thu Oct 24 14:47:35 2013 S=31.79 Km/hr
Thu Oct 24 14:47:40 2013 S=38.79 Km/hr
Thu Oct 24 14:47:45 2013 S=33.58 Km/hr
Thu Oct 24 14:48:16 2013 S=25.17 Km/hr
Thu Oct 24 14:48:22 2013 S=39.57 Km/hr
Thu Oct 24 14:48:27 2013 S=41.01 Km/hr
Thu Oct 24 14:48:32 2013 S=41.10 Km/hr
Thu Oct 24 14:48:37 2013 S=36.71 Km/hr
Thu Oct 24 14:48:43 2013 S=30.20 Km/hr
Thu Oct 24 14:48:49 2013 S=35.63 Km/hr
Thu Oct 24 14:48:54 2013 S=38.48 Km/hr
Thu Oct 24 14:48:59 2013 S=41.70 Km/hr
Thu Oct 24 14:49:03 2013 S=47.03 Km/hr
Thu Oct 24 14:49:07 2013 S=50.37 Km/hr
Thu Oct 24 14:49:11 2013 S=50.84 Km/hr
Thu Oct 24 14:49:15 2013 S=47.06 Km/hr

Komentarze

    You can or this trail